Location: Tel Aviv
(32.0670°N, 34.7670°E)
Time: 06:42:35
(UTC+02:00)

Vanguard 1 - All Passes

Search period start: 29 November 2023 00:00
Search period end: 09 December 2023 00:00
Orbit: 651 x 3828 km, 34.3° (Epoch: 27 November)

Date Brightness Start Highest point End Pass type
(mag) Time Alt. Az. Time Alt. Az. Time Alt. Az.
29 Nov - 02:17:05 10° WNW 02:34:47 39° SW 02:45:53 10° SSE visible
29 Nov - 14:42:47 10° SSE 14:49:18 14° ESE 14:57:19 10° E daylight
29 Nov - 16:55:50 10° SSW 17:10:16 52° SE 17:31:55 10° ENE visible
29 Nov - 19:16:35 10° WSW 19:35:59 88° SSE 19:59:43 10° ENE visible
29 Nov - 21:41:34 10° W 22:04:59 85° N 22:25:17 10° E visible
30 Nov - 00:09:03 10° WNW 00:32:20 71° SSW 00:47:36 10° SE visible
30 Nov - 02:39:19 10° W 02:54:43 29° SW 03:05:00 10° S visible
30 Nov - 14:59:54 10° S 15:09:05 22° SE 15:21:48 10° E daylight
30 Nov - 17:15:47 10° SW 17:30:45 63° SE 17:53:26 10° ENE visible
30 Nov - 19:37:26 10° WSW 19:57:24 88° NNW 20:20:59 10° E visible
30 Nov - 22:02:50 10° W 22:26:31 88° NNE 22:46:14 10° ESE visible
01 Dec - 00:30:29 10° WNW 00:53:01 62° SW 01:07:46 10° SE visible
01 Dec - 03:02:20 10° W 03:14:32 21° SW 03:23:25 10° S visible
01 Dec - 15:18:24 10° S 15:28:55 30° SE 15:44:43 10° E daylight
01 Dec - 17:35:59 10° SW 17:51:27 72° SSE 18:14:50 10° ENE visible
01 Dec - 19:58:25 10° W 20:18:55 85° N 20:42:14 10° E visible
01 Dec - 22:24:06 10° WNW 22:47:54 87° SSW 23:07:05 10° ESE visible
02 Dec - 00:52:01 10° WNW 01:13:28 51° SW 01:27:41 10° SSE visible
02 Dec - 03:27:05 10° W 03:34:18 14° WSW 03:40:17 10° SSW visible
02 Dec - 15:37:33 10° SSW 15:48:53 40° SE 16:06:54 10° ENE daylight
02 Dec - 17:56:24 10° WSW 18:12:24 81° SSE 18:36:13 10° ENE visible
02 Dec - 20:19:29 10° W 20:40:30 84° N 21:03:30 10° E visible
02 Dec - 22:45:20 10° WNW 23:09:07 80° SSW 23:27:46 10° ESE visible
03 Dec - 01:13:46 10° WNW 01:33:42 42° SW 01:47:17 10° SSE visible
03 Dec - 13:46:12 10° SE 13:49:10 11° ESE 13:52:29 10° ESE daylight
03 Dec - 15:57:09 10° SSW 16:09:00 50° SE 16:28:42 10° ENE daylight
03 Dec - 18:17:00 10° WSW 18:33:32 88° SSE 18:57:36 10° ENE visible
03 Dec - 20:40:34 10° W 21:02:05 85° N 21:24:42 10° E visible
03 Dec - 23:06:35 10° WNW 23:30:08 72° SSW 23:48:14 10° SE visible
04 Dec - 01:35:54 10° WNW 01:53:47 32° SW 02:06:26 10° S visible
04 Dec - 14:02:00 10° SSE 14:08:51 18° SE 14:18:12 10° E daylight
04 Dec - 16:17:02 10° SW 16:29:21 61° SE 16:50:17 10° ENE daylight
04 Dec - 18:37:45 10° WSW 18:54:50 87° N 19:19:01 10° E visible
04 Dec - 21:01:40 10° W 21:23:37 88° NNE 21:45:48 10° ESE visible
04 Dec - 23:27:52 10° WNW 23:50:56 63° SW 00:08:28 10° SE visible
05 Dec - 01:58:43 10° W 02:13:43 24° SW 02:24:59 10° S visible
05 Dec - 14:20:18 10° S 14:28:36 26° SE 14:41:17 10° E daylight
05 Dec - 16:37:12 10° SW 16:49:56 71° SSE 17:11:47 10° ENE visible
05 Dec - 18:58:35 10° W 19:16:16 84° N 19:40:26 10° E visible
05 Dec - 21:22:45 10° WNW 21:45:02 87° SSW 22:06:47 10° ESE visible
05 Dec - 23:49:17 10° WNW 00:11:31 53° SW 00:28:25 10° SSE visible
06 Dec - 02:22:54 10° W 02:33:37 17° SW 02:42:22 10° SSW visible
06 Dec - 14:39:22 10° SSW 14:48:28 36° SE 15:03:32 10° ENE daylight
06 Dec - 16:57:32 10° WSW 17:10:45 81° SSE 17:33:14 10° ENE visible
06 Dec - 19:19:29 10° W 19:37:45 84° N 20:01:51 10° E visible
06 Dec - 21:43:49 10° WNW 22:06:18 80° SSW 22:27:34 10° ESE visible
07 Dec - 00:10:54 10° WNW 00:31:55 44° SW 00:48:03 10° SSE visible
07 Dec - 14:58:54 10° SSW 15:08:30 47° SE 15:25:20 10° ENE daylight
07 Dec - 17:18:03 10° WSW 17:31:45 88° SSE 17:54:43 10° ENE visible
07 Dec - 19:40:24 10° W 19:59:16 85° N 20:23:14 10° E visible
07 Dec - 22:04:54 10° WNW 22:27:23 72° SSW 22:48:07 10° SE visible
08 Dec - 00:32:53 10° WNW 00:52:09 35° SW 01:07:15 10° SSE visible
08 Dec - 13:04:45 10° SSE 13:09:13 14° SE 13:14:52 10° E daylight
08 Dec - 15:18:46 10° SW 15:28:45 58° SE 15:46:56 10° ENE daylight
08 Dec - 17:38:42 10° W 17:52:56 87° N 18:16:15 10° E visible
08 Dec - 20:01:20 10° W 20:20:43 88° NNE 20:44:30 10° ESE visible
08 Dec - 22:26:03 10° WNW 22:48:18 63° SSW 23:08:25 10° SE visible
